QPF
0.08 0.07 0.05 0.03 0.03 0.03 0.03 0.03 0.03 0.03 0.02 0.01 0.01 0.01 0.02 0.03 0.06 0.07 0.07 0.09 0.08 0.07 0.06 0.04 0.04 0.04 0.03 0.02 0.01 0.01 0.01 0.02 0.03 0.03 0.03 0.03 0.05 0.09
0.08 0.06 0.04 0.02 0.02 0.02 0.02 0.02 0.02 0.03 0.03 0.02 0.01 0.01 0.02 0.03 0.05 0.06 0.07 0.08 0.07 0.06 0.05 0.04 0.04 0.04 0.04 0.02 0.01 0.01 0.01 0.02 0.02 0.03 0.03 0.03 0.05 0.08
0.08 0.06 0.04 0.02 0.01 0.01 0.01 0.02 0.02 0.02 0.03 0.02 0.02 0.02 0.02 0.03 0.03 0.04 0.06 0.07 0.06 0.06 0.05 0.05 0.05 0.05 0.05 0.03 0.02 0.02 0.01 0.03 0.03 0.04 0.04 0.04 0.05 0.07
0.08 0.07 0.04 0.03 0.02 0.02 0.02 0.02 0.02 0.02 0.03 0.02 0.02 0.02 0.02 0.02 0.03 0.03 0.04 0.04 0.05 0.05 0.04 0.04 0.05 0.05 0.05 0.04 0.03 0.03 0.03 0.04 0.05 0.07 0.06 0.05 0.06 0.07
0.10 0.09 0.07 0.05 0.04 0.02 0.02 0.02 0.02 0.02 0.02 0.03 0.02 0.02 0.02 0.02 0.03 0.03 0.04 0.03 0.03 0.04 0.04 0.03 0.04 0.05 0.06 0.06 0.05 0.04 0.03 0.04 0.06 0.08 0.08 0.06 0.05 0.05
0.10 0.10 0.09 0.06 0.04 0.03 0.03 0.03 0.02 0.03 0.03 0.03 0.03 0.03 0.02 0.02 0.02 0.03 0.03 0.03 0.03 0.03 0.04 0.03 0.04 0.04 0.05 0.06 0.06 0.04 0.04 0.05 0.06 0.08 0.09 0.07 0.05 0.05
0.10 0.11 0.10 0.09 0.07 0.05 0.04 0.04 0.04 0.05 0.04 0.04 0.04 0.04 0.03 0.03 0.03 0.03 0.03 0.02 0.03 0.03 0.03 0.03 0.03 0.04 0.05 0.05 0.05 0.04 0.04 0.05 0.05 0.07 0.09 0.08 0.06 0.05
0.11 0.11 0.10 0.10 0.10 0.09 0.07 0.06 0.06 0.07 0.08 0.07 0.07 0.05 0.04 0.04 0.04 0.04 0.03 0.04 0.04 0.04 0.04 0.04 0.04 0.05 0.06 0.06 0.06 0.05 0.04 0.04 0.04 0.06 0.07 0.07 0.06 0.05
0.11 0.10 0.09 0.08 0.09 0.08 0.09 0.09 0.08 0.08 0.08 0.09 0.09 0.07 0.05 0.04 0.04 0.04 0.04 0.04 0.04 0.05 0.05 0.05 0.05 0.06 0.07 0.06 0.07 0.06 0.05 0.05 0.05 0.05 0.06 0.06 0.06 0.04
0.09 0.08 0.08 0.09 0.08 0.08 0.09 0.09 0.10 0.09 0.08 0.06 0.06 0.06 0.05 0.05 0.05 0.05 0.05 0.05 0.05 0.06 0.06 0.06 0.06 0.06 0.07 0.07 0.07 0.06 0.06 0.07 0.06 0.06 0.06 0.06 0.05 0.04
0.09 0.08 0.07 0.07 0.07 0.07 0.07 0.07 0.07 0.07 0.06 0.05 0.05 0.04 0.05 0.05 0.05 0.05 0.05 0.05 0.06 0.07 0.06 0.06 0.07 0.08 0.09 0.10 0.10 0.09 0.09 0.10 0.09 0.07 0.07 0.06 0.05 0.04
0.09 0.08 0.07 0.07 0.07 0.06 0.06 0.06 0.06 0.05 0.04 0.04 0.04 0.04 0.04 0.04 0.05 0.04 0.04 0.05 0.05 0.06 0.06 0.05 0.06 0.08 0.10 0.12 0.12 0.10 0.11 0.13 0.13 0.11 0.08 0.06 0.05 0.04
0.09 0.08 0.07 0.07 0.06 0.05 0.05 0.04 0.04 0.04 0.04 0.04 0.04 0.04 0.04 0.04 0.04 0.04 0.05 0.06 0.07 0.07 0.07 0.05 0.06 0.06 0.07 0.10 0.11 0.10 0.10 0.11 0.10 0.10 0.10 0.07 0.05 0.04
0.09 0.08 0.07 0.07 0.06 0.05 0.04 0.04 0.04 0.04 0.03 0.03 0.03 0.04 0.05 0.04 0.04 0.04 0.05 0.05 0.05 0.06 0.06 0.06 0.06 0.05 0.05 0.06 0.07 0.08 0.09 0.08 0.08 0.07 0.06 0.07 0.07 0.05
0.09 0.09 0.08 0.08 0.07 0.07 0.06 0.05 0.05 0.04 0.03 0.03 0.03 0.03 0.04 0.04 0.04 0.04 0.04 0.03 0.03 0.04 0.04 0.05 0.05 0.04 0.05 0.05 0.06 0.06 0.07 0.07 0.06 0.06 0.05 0.04 0.05 0.06
0.11 0.11 0.10 0.08 0.08 0.07 0.06 0.06 0.05 0.05 0.04 0.04 0.04 0.04 0.04 0.03 0.03 0.03 0.02 0.02 0.03 0.03 0.04 0.05 0.05 0.06 0.06 0.05 0.05 0.05 0.04 0.05 0.05 0.05 0.06 0.05 0.05 0.04
0.10 0.10 0.09 0.08 0.08 0.07 0.07 0.06 0.05 0.05 0.05 0.05 0.04 0.04 0.04 0.03 0.03 0.02 0.02 0.02 0.02 0.02 0.03 0.03 0.04 0.05 0.06 0.07 0.07 0.05 0.05 0.04 0.04 0.05 0.06 0.06 0.06 0.05
0.09 0.10 0.09 0.07 0.06 0.06 0.05 0.04 0.04 0.05 0.05 0.04 0.04 0.03 0.03 0.03 0.03 0.03 0.02 0.02 0.02 0.01 0.01 0.02 0.02 0.03 0.03 0.04 0.06 0.06 0.05 0.05 0.04 0.04 0.05 0.06 0.07 0.06
0.08 0.08 0.09 0.08 0.06 0.05 0.04 0.03 0.03 0.03 0.03 0.03 0.03 0.03 0.02 0.02 0.02 0.02 0.02 0.02 0.02 0.01 0.01 0.01 0.02 0.03 0.03 0.03 0.03 0.04 0.04 0.05 0.05 0.05 0.05 0.06 0.06 0.06
0.08 0.08 0.08 0.08 0.06 0.05 0.04 0.03 0.02 0.03 0.03 0.04 0.04 0.03 0.03 0.02 0.02 0.02 0.02 0.02 0.02 0.02 0.02 0.02 0.02 0.03 0.04 0.03 0.03 0.04 0.03 0.04 0.05 0.06 0.06 0.06 0.06 0.06
0.07 0.07 0.08 0.08 0.07 0.06 0.05 0.04 0.03 0.03 0.03 0.03 0.03 0.03 0.03 0.02 0.02 0.02 0.02 0.02 0.02 0.02 0.02 0.02 0.02 0.02 0.03 0.03 0.03 0.03 0.04 0.04 0.05 0.05 0.05 0.06 0.06 0.05
0.05 0.05 0.06 0.07 0.08 0.07 0.06 0.05 0.04 0.04 0.03 0.03 0.02 0.02 0.03 0.03 0.02 0.02 0.02 0.02 0.02 0.02 0.02 0.02 0.02 0.02 0.03 0.03 0.03 0.03 0.03 0.04 0.05 0.05 0.06 0.06 0.05 0.06
0.04 0.05 0.05 0.06 0.07 0.07 0.06 0.06 0.05 0.04 0.03 0.02 0.02 0.02 0.02 0.03 0.03 0.03 0.03 0.03 0.02 0.02 0.02 0.02 0.02 0.02 0.02 0.03 0.03 0.03 0.03 0.04 0.04 0.04 0.05 0.05 0.05 0.05
MSLP
1016.77 1017.35 1017.91 1018.44 1018.98 1019.54 1020.13 1020.76 1021.45 1022.18 1022.93 1023.67 1024.34 1024.92 1025.36 1025.67 1025.84 1025.89 1025.86 1025.79 1025.73 1025.69 1025.70 1025.75 1025.82 1025.87 1025.89 1025.83 1025.68 1025.43 1025.09 1024.68 1024.23 1023.75 1023.26 1022.78 1022.32 1021.86
1015.94 1016.49 1017.01 1017.52 1018.04 1018.60 1019.22 1019.92 1020.70 1021.55 1022.43 1023.31 1024.13 1024.83 1025.39 1025.78 1026.00 1026.09 1026.07 1026.00 1025.92 1025.87 1025.85 1025.89 1025.95 1026.00 1026.02 1025.97 1025.83 1025.60 1025.28 1024.89 1024.44 1023.98 1023.50 1023.04 1022.59 1022.16
1015.04 1015.58 1016.08 1016.58 1017.09 1017.66 1018.31 1019.07 1019.93 1020.89 1021.89 1022.91 1023.86 1024.70 1025.38 1025.87 1026.18 1026.33 1026.35 1026.29 1026.20 1026.14 1026.10 1026.11 1026.15 1026.18 1026.19 1026.14 1026.00 1025.77 1025.46 1025.07 1024.64 1024.19 1023.73 1023.29 1022.86 1022.45
1014.05 1014.60 1015.11 1015.61 1016.14 1016.72 1017.41 1018.22 1019.15 1020.18 1021.29 1022.41 1023.48 1024.45 1025.25 1025.86 1026.27 1026.50 1026.59 1026.58 1026.52 1026.46 1026.43 1026.42 1026.44 1026.45 1026.44 1026.36 1026.22 1025.98 1025.67 1025.30 1024.88 1024.44 1024.00 1023.57 1023.16 1022.77
1012.96 1013.55 1014.09 1014.62 1015.18 1015.80 1016.52 1017.36 1018.32 1019.41 1020.57 1021.76 1022.92 1023.98 1024.89 1025.61 1026.14 1026.49 1026.68 1026.76 1026.78 1026.77 1026.77 1026.77 1026.79 1026.79 1026.76 1026.68 1026.51 1026.27 1025.96 1025.59 1025.18 1024.75 1024.32 1023.91 1023.52 1023.14
1011.78 1012.42 1013.03 1013.61 1014.22 1014.87 1015.62 1016.47 1017.44 1018.53 1019.70 1020.92 1022.11 1023.23 1024.23 1025.06 1025.71 1026.19 1026.53 1026.74 1026.88 1026.97 1027.04 1027.10 1027.15 1027.16 1027.14 1027.05 1026.88 1026.64 1026.32 1025.95 1025.55 1025.14 1024.72 1024.32 1023.94 1023.57
1010.54 1011.25 1011.93 1012.59 1013.25 1013.95 1014.71 1015.55 1016.50 1017.55 1018.68 1019.87 1021.05 1022.19 1023.24 1024.16 1024.93 1025.56 1026.06 1026.44 1026.74 1026.97 1027.16 1027.32 1027.43 1027.50 1027.50 1027.43 1027.28 1027.04 1026.74 1026.38 1025.99 1025.58 1025.17 1024.78 1024.39 1024.02
1009.29 1010.07 1010.83 1011.57 1012.30 1013.03 1013.80 1014.62 1015.52 1016.51 1017.56 1018.67 1019.80 1020.92 1021.99 1022.98 1023.86 1024.64 1025.30 1025.87 1026.34 1026.75 1027.09 1027.37 1027.59 1027.74 1027.80 1027.77 1027.65 1027.44 1027.16 1026.82 1026.44 1026.04 1025.64 1025.25 1024.87 1024.49
1008.06 1008.92 1009.76 1010.58 1011.37 1012.15 1012.93 1013.73 1014.57 1015.47 1016.43 1017.45 1018.51 1019.58 1020.64 1021.67 1022.64 1023.54 1024.36 1025.10 1025.75 1026.33 1026.83 1027.25 1027.59 1027.83 1027.97 1028.00 1027.93 1027.76 1027.52 1027.21 1026.86 1026.48 1026.09 1025.71 1025.32 1024.94
1006.90 1007.82 1008.74 1009.63 1010.50 1011.32 1012.13 1012.92 1013.72 1014.55 1015.43 1016.35 1017.33 1018.35 1019.39 1020.43 1021.46 1022.45 1023.39 1024.27 1025.07 1025.80 1026.44 1026.98 1027.42 1027.76 1027.98 1028.08 1028.08 1027.97 1027.78 1027.52 1027.21 1026.86 1026.49 1026.11 1025.73 1025.34
1005.79 1006.77 1007.76 1008.73 1009.67 1010.56 1011.41 1012.22 1013.02 1013.82 1014.65 1015.52 1016.44 1017.41 1018.42 1019.46 1020.51 1021.55 1022.56 1023.53 1024.43 1025.25 1025.98 1026.61 1027.14 1027.55 1027.84 1028.02 1028.08 1028.04 1027.91 1027.71 1027.45 1027.15 1026.81 1026.45 1026.07 1025.69
1004.70 1005.73 1006.78 1007.83 1008.85 1009.83 1010.76 1011.63 1012.47 1013.30 1014.13 1014.99 1015.89 1016.84 1017.83 1018.86 1019.91 1020.96 1022.00 1022.99 1023.92 1024.78 1025.54 1026.21 1026.78 1027.23 1027.58 1027.81 1027.94 1027.97 1027.92 1027.79 1027.59 1027.34 1027.04 1026.71 1026.36 1025.98
1003.57 1004.63 1005.74 1006.87 1007.99 1009.07 1010.10 1011.09 1012.03 1012.93 1013.83 1014.74 1015.67 1016.63 1017.62 1018.65 1019.68 1020.71 1021.72 1022.68 1023.59 1024.42 1025.17 1025.83 1026.40 1026.86 1027.24 1027.51 1027.70 1027.80 1027.82 1027.76 1027.63 1027.45 1027.20 1026.91 1026.57 1026.21
1002.33 1003.42 1004.57 1005.77 1006.99 1008.19 1009.36 1010.48 1011.56 1012.61 1013.63 1014.63 1015.64 1016.65 1017.67 1018.70 1019.71 1020.70 1021.66 1022.56 1023.40 1024.17 1024.86 1025.47 1026.01 1026.46 1026.84 1027.15 1027.39 1027.55 1027.64 1027.66 1027.60 1027.48 1027.29 1027.03 1026.73 1026.39
1000.94 1002.04 1003.22 1004.48 1005.78 1007.11 1008.42 1009.70 1010.96 1012.17 1013.35 1014.50 1015.61 1016.71 1017.78 1018.82 1019.82 1020.77 1021.67 1022.50 1023.26 1023.95 1024.56 1025.12 1025.61 1026.04 1026.43 1026.76 1027.04 1027.26 1027.41 1027.50 1027.51 1027.45 1027.31 1027.09 1026.82 1026.49
999.40 1000.48 1001.68 1002.98 1004.36 1005.79 1007.23 1008.68 1010.10 1011.49 1012.84 1014.15 1015.40 1016.59 1017.73 1018.80 1019.80 1020.73 1021.58 1022.35 1023.04 1023.66 1024.22 1024.72 1025.19 1025.61 1026.00 1026.36 1026.68 1026.95 1027.16 1027.30 1027.37 1027.35 1027.25 1027.07 1026.82 1026.51
997.76 998.82 1000.01 1001.33 1002.75 1004.26 1005.81 1007.39 1008.96 1010.51 1012.02 1013.46 1014.84 1016.14 1017.35 1018.46 1019.48 1020.41 1021.24 1021.98 1022.64 1023.23 1023.76 1024.25 1024.71 1025.15 1025.56 1025.95 1026.31 1026.63 1026.89 1027.08 1027.18 1027.20 1027.13 1026.97 1026.73 1026.43
996.16 997.17 998.33 999.63 1001.07 1002.62 1004.24 1005.90 1007.58 1009.25 1010.87 1012.43 1013.90 1015.29 1016.56 1017.73 1018.78 1019.73 1020.57 1021.32 1021.99 1022.59 1023.15 1023.67 1024.17 1024.65 1025.12 1025.55 1025.96 1026.32 1026.61 1026.83 1026.96 1026.99 1026.93 1026.77 1026.54 1026.25
994.76 995.70 996.81 998.07 999.49 1001.03 1002.67 1004.38 1006.11 1007.83 1009.52 1011.14 1012.68 1014.11 1015.43 1016.64 1017.73 1018.71 1019.59 1020.39 1021.11 1021.78 1022.41 1023.00 1023.58 1024.13 1024.66 1025.16 1025.61 1026.00 1026.32 1026.55 1026.68 1026.72 1026.66 1026.50 1026.27 1025.99
993.70 994.57 995.61 996.82 998.18 999.69 1001.30 1002.99 1004.71 1006.44 1008.13 1009.77 1011.32 1012.76 1014.10 1015.33 1016.45 1017.48 1018.41 1019.27 1020.08 1020.84 1021.57 1022.26 1022.94 1023.58 1024.19 1024.75 1025.25 1025.68 1026.01 1026.24 1026.38 1026.40 1026.33 1026.17 1025.95 1025.67
993.09 993.89 994.85 995.99 997.28 998.72 1000.27 1001.90 1003.57 1005.25 1006.90 1008.49 1010.01 1011.43 1012.76 1013.98 1015.12 1016.17 1017.16 1018.10 1018.99 1019.85 1020.69 1021.50 1022.28 1023.03 1023.72 1024.34 1024.89 1025.34 1025.68 1025.92 1026.04 1026.06 1025.98 1025.83 1025.61 1025.35
992.98 993.71 994.60 995.65 996.86 998.21 999.67 1001.21 1002.79 1004.38 1005.95 1007.46 1008.91 1010.27 1011.55 1012.75 1013.87 1014.94 1015.97 1016.96 1017.93 1018.89 1019.83 1020.74 1021.63 1022.46 1023.23 1023.91 1024.50 1024.97 1025.33 1025.56 1025.69 1025.71 1025.64 1025.50 1025.30 1025.07
993.31 993.98 994.79 995.76 996.88 998.13 999.48 1000.91 1002.38 1003.86 1005.32 1006.73 1008.08 1009.36 1010.57 1011.72 1012.81 1013.88 1014.91 1015.94 1016.97 1017.99 1019.01 1020.01 1020.97 1021.87 1022.70 1023.44 1024.06 1024.56 1024.94 1025.19 1025.33 1025.37 1025.32 1025.21 1025.06 1024.88
Thickness
5533 5532 5532 5532 5531 5530 5528 5527 5526 5527 5532 5534 5531 5532 5531 5531 5531 5531 5531 5531 5531 5532 5532 5531 5530 5529 5529 5528 5528 5528 5528 5528 5526 5525 5523 5522 5520 5519
5525 5525 5524 5523 5522 5520 5519 5518 5517 5517 5520 5523 5521 5520 5520 5520 5520 5520 5520 5520 5521 5521 5521 5520 5520 5520 5519 5518 5518 5518 5518 5518 5517 5516 5514 5513 5511 5510
5517 5517 5516 5515 5513 5511 5510 5508 5506 5505 5506 5509 5508 5508 5508 5508 5509 5509 5509 5509 5510 5510 5510 5510 5510 5510 5509 5508 5508 5508 5509 5508 5507 5506 5505 5504 5502 5500
5510 5508 5508 5506 5504 5503 5501 5499 5498 5496 5496 5496 5496 5496 5497 5497 5498 5498 5498 5499 5500 5500 5500 5500 5500 5500 5499 5499 5498 5499 5499 5498 5497 5496 5496 5494 5492 5489
5502 5500 5499 5496 5495 5494 5492 5490 5489 5488 5487 5487 5487 5486 5486 5486 5486 5487 5488 5489 5490 5491 5491 5491 5491 5490 5490 5489 5488 5489 5488 5488 5487 5487 5485 5483 5481 5479
5493 5492 5490 5489 5488 5486 5483 5481 5480 5479 5478 5477 5477 5476 5476 5475 5475 5476 5478 5479 5480 5480 5480 5480 5481 5480 5479 5479 5479 5479 5478 5477 5476 5476 5475 5473 5471 5469
5484 5482 5481 5480 5480 5477 5475 5474 5472 5471 5469 5469 5468 5468 5467 5466 5466 5466 5467 5468 5469 5469 5469 5471 5472 5471 5470 5469 5468 5468 5468 5467 5466 5465 5464 5462 5461 5459
5475 5473 5472 5471 5470 5469 5468 5467 5466 5464 5463 5461 5461 5460 5459 5458 5457 5456 5455 5456 5459 5460 5458 5461 5461 5460 5460 5459 5459 5458 5457 5456 5455 5454 5452 5451 5450 5449
5465 5464 5463 5462 5461 5459 5459 5458 5457 5457 5457 5456 5454 5453 5451 5449 5447 5446 5446 5446 5448 5448 5447 5450 5450 5450 5450 5449 5448 5447 5447 5446 5444 5443 5442 5441 5440 5439
5456 5455 5453 5452 5451 5450 5449 5448 5447 5447 5447 5446 5445 5444 5443 5440 5438 5437 5436 5435 5435 5435 5435 5437 5438 5439 5439 5438 5437 5436 5436 5435 5434 5433 5432 5431 5430 5430
5446 5445 5444 5444 5444 5442 5439 5438 5438 5437 5436 5435 5435 5434 5433 5431 5429 5426 5425 5425 5426 5426 5424 5423 5424 5425 5427 5428 5427 5426 5424 5424 5423 5423 5422 5422 5421 5419
5435 5435 5435 5435 5434 5432 5430 5429 5428 5427 5425 5425 5424 5423 5422 5420 5419 5417 5416 5415 5414 5414 5413 5411 5411 5411 5414 5416 5415 5414 5413 5412 5412 5412 5412 5411 5410 5408
5425 5424 5424 5424 5423 5423 5422 5421 5420 5417 5415 5413 5411 5410 5410 5409 5408 5407 5406 5405 5404 5403 5402 5400 5399 5398 5398 5401 5403 5402 5402 5401 5401 5401 5400 5400 5399 5397
5414 5413 5413 5413 5412 5412 5411 5410 5408 5406 5403 5402 5400 5399 5399 5398 5397 5396 5395 5395 5395 5394 5392 5391 5389 5389 5388 5389 5389 5390 5390 5390 5390 5390 5390 5390 5389 5388
5401 5401 5401 5400 5400 5399 5399 5398 5396 5394 5392 5391 5389 5389 5388 5387 5387 5386 5386 5386 5386 5384 5383 5382 5381 5380 5379 5378 5378 5379 5379 5379 5379 5379 5379 5379 5379 5379
5389 5389 5388 5388 5388 5387 5386 5385 5384 5383 5381 5381 5380 5379 5378 5378 5377 5377 5377 5376 5376 5375 5374 5373 5372 5371 5371 5370 5368 5368 5368 5367 5369 5368 5368 5369 5369 5370
5379 5377 5376 5376 5376 5375 5375 5374 5373 5372 5371 5370 5370 5369 5369 5369 5369 5369 5368 5368 5367 5366 5365 5365 5365 5364 5363 5362 5361 5361 5360 5360 5360 5360 5360 5360 5361 5362
5369 5366 5365 5365 5364 5364 5364 5363 5363 5362 5362 5361 5361 5361 5361 5362 5362 5361 5360 5360 5359 5358 5357 5357 5357 5358 5357 5356 5354 5354 5353 5353 5353 5352 5352 5352 5354 5354
5358 5356 5355 5355 5354 5354 5354 5353 5353 5353 5353 5353 5353 5354 5354 5354 5354 5354 5353 5353 5352 5351 5350 5349 5350 5350 5350 5349 5348 5347 5347 5346 5346 5345 5344 5343 5344 5346
5348 5347 5346 5345 5345 5345 5345 5345 5345 5345 5345 5345 5345 5346 5346 5346 5347 5346 5346 5345 5344 5344 5343 5343 5342 5342 5342 5341 5340 5340 5340 5339 5339 5338 5337 5337 5337 5339
5338 5337 5337 5337 5337 5337 5337 5337 5337 5338 5338 5338 5338 5339 5339 5339 5339 5339 5339 5339 5338 5337 5337 5337 5336 5336 5335 5334 5333 5333 5333 5333 5332 5331 5330 5330 5331 5332
5328 5328 5329 5329 5329 5329 5329 5330 5330 5331 5331 5331 5332 5332 5332 5332 5332 5332 5332 5332 5331 5331 5331 5330 5330 5329 5328 5327 5326 5325 5325 5326 5326 5326 5325 5325 5324 5325
5319 5320 5321 5321 5321 5321 5322 5323 5323 5323 5324 5324 5325 5326 5326 5326 5326 5326 5326 5326 5325 5325 5324 5323 5323 5322 5322 5321 5319 5318 5318 5318 5319 5320 5321 5322 5322 5321